📊 Raw Sensor Data

Showing records 34526 to 34550 of 84,858 total

ID Distance (ft) Battery V Battery A Int Temp (°F) Int Humid (%) Ext Temp (°F) Solar V RSSI SNR Time Stamp
50345 15.5 3.72 -5 65 45 66 0.00 -72 8 08/26/2025 11:45 PM
50344 15.5 3.73 -5 65 46 66 0.00 -71 8 08/26/2025 11:30 PM
50343 15.5 3.73 -5 66 46 67 0.00 -71 8 08/26/2025 11:15 PM
50342 15.5 3.73 -5 66 46 67 0.10 -70 8 08/26/2025 11:00 PM
50341 15.5 3.60 -5 67 46 67 0.10 -71 8 08/26/2025 10:45 PM
50340 15.5 3.73 -5 67 46 68 0.00 -71 8 08/26/2025 10:30 PM
50339 15.5 3.60 -5 68 47 69 0.00 -71 8 08/26/2025 10:15 PM
50338 15.5 3.60 -5 68 47 69 0.00 -70 8 08/26/2025 10:00 PM
50337 15.5 3.60 -5 69 47 69 0.00 -72 8 08/26/2025 09:45 PM
50336 15.5 3.73 -5 69 48 70 0.00 -71 8 08/26/2025 09:30 PM
50335 15.5 3.60 -5 70 48 70 0.00 -71 8 08/26/2025 09:15 PM
50334 15.5 3.60 -5 71 49 71 0.00 -72 8 08/26/2025 09:00 PM
50333 15.5 3.74 -5 72 50 72 0.00 -72 7 08/26/2025 08:45 PM
50332 15.5 3.61 -5 73 51 73 0.10 -70 8 08/26/2025 08:30 PM
50331 15.5 3.74 -5 75 52 74 0.00 -71 8 08/26/2025 08:15 PM
50330 15.5 3.61 -5 76 53 75 0.80 -70 8 08/26/2025 08:00 PM
50329 15.5 3.74 -6 79 54 76 1.60 -71 8 08/26/2025 07:45 PM
50328 15.5 3.76 0 83 54 78 4.50 -71 8 08/26/2025 07:30 PM
50327 15.5 3.79 0 88 52 82 4.50 -71 8 08/26/2025 07:15 PM
50326 15.6 3.84 9 90 52 84 4.60 -71 8 08/26/2025 07:00 PM
50325 15.6 3.78 27 94 51 86 4.50 -70 9 08/26/2025 06:45 PM
50324 15.6 3.90 0 95 50 87 5.10 -70 8 08/26/2025 06:30 PM
50323 15.6 3.72 0 97 49 89 5.10 -71 8 08/26/2025 06:15 PM
50322 15.6 3.74 0 98 50 90 5.10 -71 8 08/26/2025 06:00 PM
50321 15.7 3.72 0 99 49 89 5.10 -70 7 08/26/2025 05:45 PM